Location: Unspecified
(34.4950°S, 58.5160°W)
Time: 14:49:26
(UTC+00:00)

Cosmos 1655 Rocket - Pass Details

Date: 06 July 2022
Orbit: 971 x 1005 km, 83.0° (Epoch: 11 August)

Event Time Altitude Azimuth Distance (km) Brightness Sun altitude
Rises 22:05:52 0° 16° (NNE) 3,713 7.1 -13.9°
Reaches altitude 10° 22:08:30 10° 22° (NNE) 2,774 6.3 -14.4°
Maximum altitude 22:14:26 42° 91° (E) 1,408 4.4 -15.6°
Drops below altitude 10° 22:20:26 10° 159° (SSE) 2,806 6.1 -16.8°
Enters shadow 22:22:54 - 165° (SSE) 3,682 6.7 -17.3°
